Showing default

LKW-2, 43080

Orbit data source: Space-Track

LKW-2, 43080 is a Chinese payload satellite in SSO that was launched on Sat, 23 Dec 2017 UTC via a CHANG ZHENG 2D launch vehicle from the Jiuquan Satellite Launch Center, China (JSC). Payload-class satellites include a variety of spacecraft equipped with specific instruments for various scientific and technological missions. These include communications satellites like Starlink; space stations such as the ISS; scientific satellites like the Hubble; Earth observation satellites from companies like Planet Labs, Umbra, and HawkEye 360; GPS; miniature CubeSats for education and research; and military/defense satellites.

Loading next visibility...
Identifier
43080, 2017-084A
Orbit
SSO
Country
Flag of CNCN / PRC
Related business
Manufacturer
CAST?
Mission
Operational Defense Imaging
Bus & Motor
LKW, Unknown motor
Mass
~2,000 kg wet, ~2,000 kg dry
Launch date (UTC)
2017-12-23 (8 years ago)
Launch vehicle
CHANG ZHENG 2D
Launch site
Jiuquan Satellite Launch Center, China (JSC)
Object type
Payload
Rocket body
Debris
Shape & HBR
Hex Cyl + 3 Pan, 5.0 m
Radar Cross Section
8.135 m², Large (>1 m²)

Expand to show TLE details & history
Last TLE update: 7 hours ago

TLE from 7 hours ago
0 LKW-2
1 43080U 17084A   26072.00963999  .00006430  00000-0  26047-3 0  9992
2 43080  97.1332 116.3285 0001642 164.2640 195.8649 15.24985937457027
Epoch: 2026-03-13T00:13Z
TLE epoch observation values (Epoch: 2026-03-13T00:13:52.895Z)
Latitude
-0.00009°
Longitude
-57.79321°
Altitude
495.018 km
Speed
7.617 km/s
True Right ascension
07h 45m 18s
True Declination
0° 00' 00"
Sunlit
Object was in full shadow at epoch
Visualization orbit readout
Latitude
Unknown
Longitude
Unknown
Altitude
Unknown
Speed
Unknown
Apparent Right ascension
Unknown
Apparent Declination
Unknown
Sunlit
N/A
Visualization observer readout
Local Sidereal Time
11:53:36
Azimuth
Unknown
Elevation
Unknown
Doppler factor
Unknown
Orbital elements
Apogee altitude
488.903 km
Perigee altitude
486.648 km
Semi-major axis
6,865.912 km
Eccentricity
0.00016
Inclination
97.1332°
RAAN
116.3285°
Arg. of periapsis
164.264°
True anomaly
195.85976°
Mean anomaly
195.8649°
Eccentric anomaly
195.86233°
Mean motion
3.81501 °/min
Orbital period
94.36 mins
BSTAR
0.00026047
Loading maneuver chart data...
Computing Atmospheric mass density...
Loading historical data...
Loading historical data...
Loading historical data...
Loading historical data...
Loading historical data...
Loading historical data...
Loading historical data...

Documentation

Showing up to 5 results
|